Terminal Aerodrome Forecast
Issued by NWS

Home | Current Version | Previous Version | Graphics & Text | Print | Product List | Glossary On
Versions: 1 2 3 4 5 6 7 8 9 10 11 12 13 14 15 16 17 18 19 20 21 22 23 24 25 26 27 28 29 30 31 32 33 34 35 36 37 38 39 40 41 42 43 44 45 46 47 48 49 50
000
FTUS43 KLOT 250233 AAA
TAFGYY
TAF AMD
KGYY 250233Z 2503/2524 26019KT P6SM SCT008 OVC020
     FM250400 28011G18KT 6SM -DZ BR OVC008
     FM250700 29013G20KT 4SM BR VCSH OVC008
      TEMPO 2507/2509 1 1/2SM -RASN BR
     FM251000 29015G23KT 2SM -SN BR OVC015
     FM251300 28018G26KT P6SM OVC020 PROB30 2513/2516 2SM -SN BR
      OVC015
     FM251700 29018G26KT P6SM OVC020
     FM252300 29017G25KT P6SM BKN035=

USA.gov is the U.S. government's official web portal to all federal, state and local government web resources and services.